Location: Gauravaram
(16.6995°N, 80.5417°E)
Time: 18:48:49
(UTC+00:00)

Cosmos 2082 Rocket - Pass Details

Date: 03 August 2024
Orbit: 833 x 852 km, 71.0° (Epoch: 19 September)

Event Time Altitude Azimuth Distance (km) Brightness Sun altitude
Rises 15:09:56 0° 334° (NNW) 3,374 6.2 -27.3°
Reaches altitude 10° 15:12:26 10° 329° (NNW) 2,441 5.4 -27.8°
Maximum altitude 15:17:47 48° 256° (WSW) 1,082 2.9 -28.9°
Enters shadow 15:18:58 41° 220° (SW) 1,186 2.9 -29.2°
